Flag for U.S.A. Weather past 2 weeks in Charleston, South Carolina, U.S.A.

Now
84 °F

Clear.


Feels Like: 95 °F
Forecast: 81 / 96 °F
Wind: 7 mph from Southwest

Location: Charleston Air Force Base Reporting Station

Current Time: Aug 23, 2014 at 2:17:06 AM

Latest Report: Aug 23, 2014 at 12:56 AM


Visibility: 10 mi

Pressure: 29.94 "Hg

Humidity: 83%

Dew point: 78 °F

Location of CharlestonLocation

Historic Weather in Charleston — Graph

°F

Charleston temperature yesterday

Maximum temperature yesterday: 99 °F (at 3:56 PM)
Minimum temperature yesterday: 80 °F (at 2:56 AM)
Average temperature yesterday: 88 °F

Past Weeks' High & Low Weather Summary

 TemperatureHumidityPressure
High99 °F (Aug 22, 3:56 PM)94% (Aug 10, 5:56 AM)30.08 "Hg (Aug 10, 5:56 AM)
Low72 °F (Aug 14, 6:56 AM)37% (Aug 17, 4:56 PM)29.83 "Hg (Aug 12, 3:56 PM)
Average83 °F73%29.97 "Hg
* Reported Aug 8 12:56 AM — Aug 23 12:56 AM, Charleston, Weather by CustomWeather, © 2014

Note: Actual official high and low records may vary slightly from our data, if they occured in-between our weather recording intervals... More about our weather records

Advertising

Charleston weather history for previous 24 hours

 ConditionsComfort  
Time TempWeatherWind HumidityBarometerVisibility
12:56 AM
Aug 23
84 °FClear.7 mph83%29.94 "Hg10 mi
11:56 PM
Aug 22
84 °FClear.7 mph83%29.95 "Hg10 mi
10:56 PM84 °FClear.6 mph83%29.96 "Hg10 mi
9:56 PM86 °FClear.8 mph77%29.95 "Hg10 mi
8:56 PM87 °FPassing clouds.9 mph75%29.95 "Hg10 mi
7:56 PM89 °FScattered clouds.7 mph72%29.94 "Hg10 mi
6:56 PM94 °FScattered clouds.8 mph60%29.93 "Hg10 mi
5:56 PM97 °FScattered clouds.7 mph42%29.93 "Hg10 mi
4:56 PM98 °FScattered clouds.7 mph42%29.95 "Hg10 mi
3:56 PM99 °FScattered clouds.12 mph37%29.96 "Hg10 mi
2:56 PM98 °FScattered clouds.9 mph42%29.98 "Hg10 mi
1:56 PM98 °FScattered clouds.6 mph40%30.01 "Hg10 mi
12:56 PM97 °FScattered clouds.5 mph45%30.02 "Hg10 mi
11:56 AM95 °FScattered clouds.7 mph46%30.03 "Hg10 mi
10:56 AM93 °FScattered clouds.6 mph49%30.04 "Hg10 mi
9:56 AM90 °FScattered clouds.No wind57%30.04 "Hg10 mi
8:56 AM85 °FScattered clouds.3 mph77%30.04 "Hg10 mi
7:56 AM81 °FPassing clouds.5 mph88%30.02 "Hg8 mi
6:56 AM80 °FLight fog.3 mph90%30.01 "Hg7 mi
5:56 AM80 °FClear.No wind90%30.01 "Hg8 mi
4:56 AM80 °FFog.No wind90%30.01 "Hg6 mi
3:56 AM81 °FClear.No wind88%30.02 "Hg8 mi
2:56 AM80 °FClear.3 mph90%30.03 "Hg8 mi
Weather by CustomWeather, © 2014

See weather overviewHow to use our weather pages